Weather History for Albion, NE

Change the Weather History Date:

Wednesday, October 3, 2012

  Actual Average (KOFK) Record (KOFK)
Temperature  
Mean Temperature 65 °F 56 °F  
Max Temperature 85 °F 69 °F 96 °F (1938)
Min Temperature 45 °F 43 °F 27 °F (1987)
Degree Days  
Heating Degree Days 0 10  
Month to date heating degree days 28  
Since 1 July heating degree days 170  
Cooling Degree Days 0 1  
Month to date cooling degree days 3  
Year to date cooling degree days 909  
Growing Degree Days 15 (Base 50)    
Moisture  
Dew Point 37 °F    
Average Humidity 41    
Maximum Humidity 62    
Minimum Humidity 21    
Precipitation  
Precipitation 0.00 in 0.09 in 1.08 in (1925)
Month to date precipitation 0.26  
Year to date precipitation 23.48  
Snow  
Snow 0.00 in 0.00 in - ()
Month to date snowfall 0.0  
Since 1 July snowfall T  
Snow Depth -    
Sea Level Pressure  
Sea Level Pressure 29.82 in    
Wind  
Wind Speed 11 mph (SSE)    
Max Wind Speed 26 mph    
Max Gust Speed 37 mph    
Visibility 10 miles    
Events      
T = Trace of Precipitation, MM = Missing Value Source: NWS Daily Summary

Daily Weather History Graph

Daily Weather History Graph

Search for Another Location

Airport:

Trip Planner

Search our weather history database for the weather conditions in past years. The results will help you decide how hot, cold, wet, or windy it might be!

Date:

Astronomy

Oct. 03, 2012 Rise Set
Actual Time 7:31 AM CDT 7:09 PM CDT
Civil Twilight 7:04 AM CDT 7:37 PM CDT
Nautical Twilight 6:31 AM CDT 8:09 PM CDT
Astronomical Twilight 5:59 AM CDT 8:41 PM CDT
Moon 8:59 PM CDT (10/3) 10:59 AM CDT (10/3)
Length of Visible Light 12h 33m
Length of Day
11h 37m
Waning Gibbous, 88% of the Moon is Illuminated
Oct 3
Waning Gibbous
Oct 8
Last Quarter
Oct 15
New
Oct 21
First Quarter
Oct 29
Full

Hourly Weather History & Observations

Time (CDT) Temp. Windchill Dew Point Humidity Pressure Visibility Wind Dir Wind Speed Gust Speed Precip Events Conditions
12:15 AM 52.2 °F - 29.3 °F 41% 29.86 in 10.0 mi SE 6.9 mph - N/A   Clear
12:35 AM 51.8 °F - 29.5 °F 42% 29.86 in 10.0 mi SSE 5.8 mph - N/A   Clear
12:55 AM 51.4 °F - 29.5 °F 43% 29.86 in 10.0 mi SSE 4.6 mph - N/A   Clear
1:15 AM 52.2 °F - 29.8 °F 42% 29.86 in 10.0 mi SSE 4.6 mph - N/A   Clear
1:35 AM 52.0 °F - 30.0 °F 43% 29.86 in 10.0 mi SSE 5.8 mph - N/A   Clear
1:55 AM 50.9 °F - 30.4 °F 45% 29.86 in 10.0 mi SE 6.9 mph - N/A   Clear
2:15 AM 49.8 °F - 30.6 °F 48% 29.87 in 10.0 mi SE 5.8 mph - N/A   Clear
2:35 AM 49.3 °F - 30.7 °F 49% 29.87 in 10.0 mi SE 4.6 mph - N/A   Clear
2:55 AM 48.6 °F - 30.9 °F 51% 29.86 in 10.0 mi SE 4.6 mph - N/A   Clear
3:15 AM 49.1 °F - 31.5 °F 51% 29.86 in 10.0 mi SSE 5.8 mph - N/A   Clear
3:35 AM 49.3 °F - 31.8 °F 51% 29.86 in 10.0 mi SSE 6.9 mph - N/A   Clear
3:55 AM 49.5 °F - 32.0 °F 51% 29.85 in 10.0 mi SE 5.8 mph - N/A   Clear
4:15 AM 49.3 °F - 32.0 °F 51% 29.85 in 10.0 mi SE 4.6 mph - N/A   Clear
4:35 AM 48.9 °F - 32.2 °F 52% 29.84 in 10.0 mi SE 4.6 mph - N/A   Clear
5:15 AM 48.9 °F - 32.7 °F 54% 29.84 in 10.0 mi SSE 5.8 mph - N/A   Clear
5:35 AM 47.8 °F - 32.4 °F 55% 29.84 in 10.0 mi SE 6.9 mph - N/A   Clear
5:55 AM 47.7 °F - 32.7 °F 56% 29.84 in 10.0 mi SE 6.9 mph - N/A   Clear
6:15 AM 48.2 °F - 32.9 °F 55% 29.84 in 10.0 mi SE 6.9 mph - N/A   Clear
6:35 AM 48.6 °F - 33.3 °F 56% 29.84 in 10.0 mi SE 8.1 mph - N/A   Clear
6:55 AM 47.1 °F - 33.1 °F 58% 29.84 in 10.0 mi SE 8.1 mph - N/A   Clear
7:15 AM 45.7 °F 42.7 °F 33.1 °F 61% 29.84 in 10.0 mi SE 5.8 mph - N/A   Clear
7:35 AM 45.3 °F 41.6 °F 33.1 °F 62% 29.83 in 10.0 mi SE 6.9 mph - N/A   Clear
7:55 AM 45.7 °F 42.0 °F 33.3 °F 62% 29.83 in 10.0 mi SE 6.9 mph - N/A   Clear
8:15 AM 46.6 °F - 33.4 °F 60% 29.82 in 10.0 mi SE 6.9 mph - N/A   Clear
8:35 AM 48.0 °F - 33.8 °F 58% 29.81 in 10.0 mi SE 6.9 mph - N/A   Clear
8:55 AM 50.5 °F - 34.5 °F 54% 29.81 in 10.0 mi SE 5.8 mph - N/A   Clear
9:15 AM 55.4 °F - 35.4 °F 47% 29.80 in 10.0 mi SSE 8.1 mph - N/A   Clear
9:35 AM 58.6 °F - 35.4 °F 42% 29.80 in 10.0 mi SSE 12.7 mph 16.1 mph N/A   Clear
9:55 AM 62.2 °F - 35.8 °F 37% 29.80 in 10.0 mi SSE 11.5 mph - N/A   Clear
10:15 AM 64.4 °F - 37.2 °F 37% 29.80 in 10.0 mi South 15.0 mph - N/A   Clear
10:35 AM 65.8 °F - 38.1 °F 36% 29.79 in 10.0 mi South 13.8 mph 19.6 mph N/A   Clear
10:55 AM 68.9 °F - 39.4 °F 34% 29.79 in 10.0 mi South 15.0 mph - N/A   Clear
11:15 AM 70.9 °F - 40.3 °F 33% 29.79 in 10.0 mi South 15.0 mph 20.7 mph N/A   Clear
11:35 AM 72.0 °F - 40.8 °F 32% 29.78 in 10.0 mi South 13.8 mph - N/A   Clear
12:15 PM 75.7 °F - 41.7 °F 30% 29.76 in 10.0 mi South 19.6 mph 25.3 mph N/A   Clear
12:55 PM 78.6 °F - 41.7 °F 27% 29.75 in 10.0 mi South 19.6 mph 26.5 mph N/A   Clear
1:15 PM 79.5 °F - 42.1 °F 26% 29.73 in 10.0 mi South 23.0 mph 28.8 mph N/A   Clear
1:35 PM 80.6 °F - 42.3 °F 26% 29.72 in 10.0 mi South 24.2 mph 32.2 mph N/A   Clear
1:55 PM 81.9 °F - 42.3 °F 25% 29.71 in 10.0 mi South 24.2 mph 33.4 mph N/A   Clear
2:15 PM 82.4 °F - 41.4 °F 23% 29.71 in 10.0 mi South 20.7 mph 33.4 mph N/A   Clear
2:35 PM 82.6 °F - 40.6 °F 23% 29.71 in 10.0 mi South 24.2 mph 32.2 mph N/A   Clear
2:55 PM 83.5 °F - 41.0 °F 22% 29.70 in 10.0 mi South 20.7 mph 32.2 mph N/A   Clear
3:15 PM 84.2 °F - 41.0 °F 22% 29.70 in 10.0 mi South 21.9 mph 29.9 mph N/A   Clear
3:35 PM 85.1 °F - 40.5 °F 21% 29.70 in 10.0 mi SSW 23.0 mph 33.4 mph N/A   Clear
3:55 PM 84.2 °F - 41.2 °F 22% 29.70 in 10.0 mi South 19.6 mph 31.1 mph N/A   Clear
4:15 PM 84.6 °F - 41.7 °F 22% 29.69 in 10.0 mi South 20.7 mph 31.1 mph N/A   Clear
4:35 PM 82.9 °F - 41.5 °F 23% 29.70 in 10.0 mi SSW 17.3 mph 28.8 mph N/A   Clear
5:15 PM 84.9 °F - 42.4 °F 22% 29.71 in 10.0 mi South 20.7 mph 25.3 mph N/A   Clear
5:35 PM 84.6 °F - 42.3 °F 23% 29.71 in 10.0 mi South 20.7 mph 24.2 mph N/A   Clear
5:55 PM 84.2 °F - 42.1 °F 23% 29.71 in 10.0 mi SSW 16.1 mph - N/A   Clear
6:15 PM 82.8 °F - 42.8 °F 24% 29.72 in 10.0 mi South 11.5 mph - N/A   Clear
6:35 PM 81.1 °F - 42.4 °F 25% 29.73 in 10.0 mi SSW 10.4 mph 17.3 mph N/A   Clear
6:55 PM 78.6 °F - 36.5 °F 22% 29.77 in 10.0 mi NW 20.7 mph 26.5 mph N/A   Clear
7:15 PM 73.9 °F - 35.8 °F 25% 29.79 in 10.0 mi NNW 12.7 mph 16.1 mph N/A   Clear
7:35 PM 70.9 °F - 34.9 °F 27% 29.82 in 10.0 mi NW 12.7 mph - N/A   Clear
7:55 PM 68.7 °F - 34.0 °F 28% 29.84 in 10.0 mi NW 11.5 mph - N/A   Clear
8:15 PM 68.4 °F - 36.3 °F 31% 29.86 in 10.0 mi NNW 21.9 mph 32.2 mph N/A   Clear
8:35 PM 64.6 °F - 39.7 °F 40% 29.89 in 10.0 mi NW 18.4 mph 29.9 mph N/A   Clear
8:55 PM 61.7 °F - 39.6 °F 44% 29.91 in 10.0 mi NNW 19.6 mph 34.5 mph N/A   Clear
9:15 PM 59.5 °F - 39.4 °F 47% 29.93 in 10.0 mi NNW 26.5 mph 31.1 mph N/A   Clear
9:35 PM 57.2 °F - 39.4 °F 51% 29.97 in 10.0 mi NW 19.6 mph 28.8 mph N/A   Clear
9:55 PM 56.1 °F - 39.6 °F 54% 29.98 in 10.0 mi NW 18.4 mph 28.8 mph N/A   Clear
10:15 PM 54.7 °F - 39.7 °F 57% 29.98 in 10.0 mi NNW 18.4 mph 29.9 mph N/A   Clear
10:35 PM 53.8 °F - 39.7 °F 59% 29.99 in 10.0 mi NW 24.2 mph 28.8 mph N/A   Clear
10:55 PM 53.1 °F - 39.6 °F 60% 30.00 in 10.0 mi NNW 24.2 mph 31.1 mph N/A   Clear
11:15 PM 52.7 °F - 39.4 °F 61% 30.02 in 10.0 mi NNW 21.9 mph 32.2 mph N/A   Clear
11:35 PM 52.3 °F - 39.4 °F 61% 30.03 in 10.0 mi NW 20.7 mph 29.9 mph N/A   Clear
11:55 PM 52.2 °F - 38.5 °F 60% 30.04 in 10.0 mi NW 26.5 mph 36.8 mph N/A   Clear